• In Uzbekistan
  • List of Countries
  • For 7 days
  • Water Temperature
  • Satellite Maps
  • Weather Map
  • Weather Widgets
  • user-avatar
    Login

    Hourly Weather Grevenmacher

    Today, 20 September, Thursday

    Time Temperature Precipitation Wind Pressure Humidity
    00:00 +15°C° 0 mm 0 mps 739 mmHg 86%
    01:00 +16°C° 0 mm 1 mps 739 mmHg 87%
    02:00 +15°C° 0 mm 1 mps 739 mmHg 87%
    03:00 +15°C° 0 mm 1 mps 739 mmHg 88%
    04:00 +15°C° 0 mm 1 mps 739 mmHg 88%
    05:00 +15°C° 0 mm 1 mps 739 mmHg 88%
    06:00 +15°C° 0 mm 1 mps 739 mmHg 88%
    07:00 +17°C° 0 mm 2 mps 739 mmHg 81%
    08:00 +19°C° 0 mm 3 mps 739 mmHg 73%
    09:00 +21°C° 0 mm 3 mps 740 mmHg 65%
    10:00 +22°C° 0 mm 4 mps 739 mmHg 61%
    11:00 +25°C° 0 mm 4 mps 739 mmHg 58%
    12:00 +26°C° 0 mm 4 mps 739 mmHg 54%
    13:00 +26°C° 0 mm 4 mps 738 mmHg 53%
    14:00 +26°C° 0 mm 4 mps 738 mmHg 53%
    15:00 +26°C° 0 mm 4 mps 737 mmHg 52%
    16:00 +24°C° 0 mm 3 mps 737 mmHg 58%
    17:00 +21°C° 0 mm 2 mps 736 mmHg 65%
    18:00 +19°C° 0 mm 2 mps 736 mmHg 71%
    19:00 +19°C° 0 mm 2 mps 735 mmHg 73%
    20:00 +18°C° 0 mm 2 mps 735 mmHg 75%
    21:00 +18°C° 0 mm 2 mps 735 mmHg 77%
    22:00 +18°C° 0 mm 2 mps 734 mmHg 79%
    23:00 +17°C° 0 mm 2 mps 734 mmHg 81%

    Tomorrow, 21 September, Friday

    Time Temperature Precipitation Wind Pressure Humidity
    00:00 +17°C° 0 mm 3 mps 733 mmHg 82%
    01:00 +17°C° 0 mm 3 mps 733 mmHg 81%
    02:00 +17°C° 0 mm 3 mps 733 mmHg 80%
    03:00 +17°C° 0 mm 3 mps 732 mmHg 79%
    04:00 +18°C° 0 mm 4 mps 732 mmHg 78%
    05:00 +18°C° 0 mm 4 mps 732 mmHg 77%
    06:00 +17°C° 0 mm 5 mps 731 mmHg 77%
    07:00 +17°C° 0.2 mm 6 mps 732 mmHg 75%
    08:00 +18°C° 0.2 mm 7 mps 732 mmHg 73%
    09:00 +18°C° 0.2 mm 8 mps 733 mmHg 71%
    10:00 +17°C° 1.4 mm 7 mps 733 mmHg 74%
    11:00 +16°C° 1.4 mm 6 mps 734 mmHg 77%
    12:00 +14°C° 1.4 mm 6 mps 734 mmHg 80%
    13:00 +15°C° 0.1 mm 6 mps 735 mmHg 71%
    14:00 +16°C° 0.1 mm 6 mps 735 mmHg 62%
    15:00 +16°C° 0.1 mm 7 mps 736 mmHg 53%
    16:00 +15°C° 0 mm 6 mps 737 mmHg 55%
    17:00 +14°C° 0 mm 5 mps 737 mmHg 57%
    18:00 +12°C° 0 mm 4 mps 738 mmHg 59%
    19:00 +11°C° 0 mm 3 mps 738 mmHg 61%
    20:00 +11°C° 0 mm 3 mps 739 mmHg 63%
    21:00 +10°C° 0 mm 3 mps 740 mmHg 66%
    22:00 +10°C° 0 mm 3 mps 740 mmHg 66%
    23:00 +10°C° 0 mm 3 mps 740 mmHg 67%

    Day after tomorrow, 22 September, Saturday

    Time Temperature Precipitation Wind Pressure Humidity
    00:00 +10°C° 0 mm 3 mps 741 mmHg 68%
    01:00 +10°C° 0 mm 3 mps 741 mmHg 71%
    02:00 +9°C° 0 mm 3 mps 741 mmHg 75%
    03:00 +8°C° 0 mm 3 mps 741 mmHg 79%
    04:00 +8°C° 0 mm 3 mps 741 mmHg 80%
    05:00 +8°C° 0 mm 3 mps 742 mmHg 82%
    06:00 +8°C° 0 mm 3 mps 742 mmHg 84%
    07:00 +10°C° 0 mm 3 mps 742 mmHg 77%
    08:00 +11°C° 0 mm 4 mps 742 mmHg 71%
    09:00 +13°C° 0 mm 4 mps 742 mmHg 64%
    10:00 +14°C° 0 mm 4 mps 742 mmHg 60%
    11:00 +15°C° 0 mm 5 mps 742 mmHg 56%
    12:00 +16°C° 0 mm 5 mps 742 mmHg 52%
    13:00 +17°C° 0 mm 4 mps 742 mmHg 52%
    14:00 +17°C° 0 mm 4 mps 742 mmHg 53%
    15:00 +17°C° 0 mm 4 mps 741 mmHg 53%
    16:00 +16°C° 0 mm 3 mps 741 mmHg 58%
    17:00 +15°C° 0 mm 2 mps 741 mmHg 63%
    18:00 +14°C° 0 mm 1 mps 741 mmHg 67%
    19:00 +13°C° 0.1 mm 1 mps 741 mmHg 71%
    20:00 +13°C° 0.1 mm 1 mps 741 mmHg 74%
    21:00 +12°C° 0.1 mm 1 mps 741 mmHg 78%
    22:00 +12°C° 0.3 mm 2 mps 740 mmHg 80%
    23:00 +12°C° 0.3 mm 2 mps 739 mmHg 81%

    23 September, Sunday

    Time Temperature Precipitation Wind Pressure Humidity
    00:00 +12°C° 0.3 mm 2 mps 739 mmHg 83%
    01:00 +11°C° 0.2 mm 3 mps 738 mmHg 81%
    02:00 +12°C° 0.2 mm 4 mps 737 mmHg 79%
    03:00 +12°C° 0.2 mm 4 mps 736 mmHg 77%
    04:00 +12°C° 0.4 mm 5 mps 736 mmHg 79%
    05:00 +13°C° 0.4 mm 5 mps 735 mmHg 81%
    06:00 +13°C° 0.4 mm 6 mps 735 mmHg 83%
    07:00 +14°C° 0.7 mm 6 mps 734 mmHg 85%
    08:00 +14°C° 0.7 mm 7 mps 734 mmHg 87%
    09:00 +15°C° 0.7 mm 7 mps 734 mmHg 89%
    10:00 +16°C° 0.3 mm 7 mps 734 mmHg 88%
    11:00 +17°C° 0.3 mm 8 mps 733 mmHg 87%
    12:00 +18°C° 0.3 mm 8 mps 733 mmHg 86%
    13:00 +18°C° 0.7 mm 9 mps 732 mmHg 87%
    14:00 +18°C° 0.7 mm 9 mps 731 mmHg 88%
    15:00 +18°C° 0.7 mm 9 mps 730 mmHg 89%
    16:00 +18°C° 2.3 mm 10 mps 730 mmHg 88%
    17:00 +17°C° 2.3 mm 10 mps 729 mmHg 88%
    18:00 +17°C° 2.3 mm 11 mps 729 mmHg 88%
    19:00 +14°C° 1.1 mm 10 mps 731 mmHg 87%
    20:00 +12°C° 1.1 mm 9 mps 733 mmHg 87%
    21:00 +9°C° 1.1 mm 8 mps 735 mmHg 86%
    22:00 +9°C° 0 mm 7 mps 737 mmHg 87%
    23:00 +8°C° 0 mm 5 mps 739 mmHg 87%

    24 September, Monday

    Time Temperature Precipitation Wind Pressure Humidity
    00:00 +7°C° 0 mm 4 mps 741 mmHg 88%
    01:00 +8°C° 0 mm 3 mps 742 mmHg 89%
    02:00 +7°C° 0 mm 3 mps 743 mmHg 90%
    03:00 +6°C° 0 mm 2 mps 744 mmHg 91%
    04:00 +6°C° 0 mm 2 mps 745 mmHg 91%
    05:00 +6°C° 0 mm 2 mps 746 mmHg 91%
    06:00 +7°C° 0 mm 1 mps 746 mmHg 91%
    07:00 +8°C° 0 mm 2 mps 747 mmHg 82%
    08:00 +10°C° 0 mm 3 mps 747 mmHg 72%
    09:00 +12°C° 0 mm 3 mps 748 mmHg 63%
    10:00 +12°C° 0 mm 3 mps 748 mmHg 59%
    11:00 +13°C° 0 mm 3 mps 748 mmHg 55%
    12:00 +14°C° 0 mm 3 mps 748 mmHg 51%
    13:00 +14°C° 0 mm 3 mps 748 mmHg 51%
    14:00 +14°C° 0 mm 4 mps 748 mmHg 52%
    15:00 +14°C° 0 mm 4 mps 748 mmHg 53%
    16:00 +12°C° 0 mm 3 mps 749 mmHg 60%
    17:00 +10°C° 0 mm 2 mps 749 mmHg 66%
    18:00 +9°C° 0 mm 2 mps 749 mmHg 73%
    19:00 +8°C° 0 mm 2 mps 750 mmHg 76%
    20:00 +7°C° 0 mm 2 mps 750 mmHg 79%
    21:00 +7°C° 0 mm 2 mps 751 mmHg 83%
    22:00 +6°C° 0 mm 2 mps 751 mmHg 84%
    23:00 +6°C° 0 mm 2 mps 751 mmHg 86%

    25 September, Tuesday

    Time Temperature Precipitation Wind Pressure Humidity
    00:00 +5°C° 0 mm 2 mps 751 mmHg 88%
    01:00 +6°C° 0 mm 1 mps 751 mmHg 88%
    02:00 +6°C° 0 mm 1 mps 751 mmHg 89%
    03:00 +5°C° 0 mm 1 mps 751 mmHg 89%
    04:00 +5°C° 0 mm 1 mps 751 mmHg 88%
    05:00 +5°C° 0 mm 1 mps 751 mmHg 88%
    06:00 +5°C° 0 mm 1 mps 751 mmHg 87%
    07:00 +8°C° 0 mm 1 mps 751 mmHg 77%
    08:00 +10°C° 0 mm 1 mps 752 mmHg 68%
    09:00 +12°C° 0 mm 2 mps 752 mmHg 58%
    10:00 +14°C° 0 mm 1 mps 752 mmHg 54%
    11:00 +15°C° 0 mm 1 mps 751 mmHg 50%
    12:00 +16°C° 0 mm 1 mps 751 mmHg 47%
    13:00 +16°C° 0 mm 2 mps 751 mmHg 48%
    14:00 +16°C° 0 mm 2 mps 750 mmHg 49%
    15:00 +16°C° 0 mm 2 mps 750 mmHg 50%
    16:00 +14°C° 0 mm 2 mps 750 mmHg 58%
    17:00 +12°C° 0 mm 1 mps 750 mmHg 66%
    18:00 +10°C° 0 mm 1 mps 750 mmHg 74%
    19:00 +10°C° 0 mm 1 mps 750 mmHg 78%
    20:00 +9°C° 0 mm 1 mps 750 mmHg 81%
    21:00 +9°C° 0 mm 1 mps 750 mmHg 84%
    22:00 +8°C° 0 mm 1 mps 750 mmHg 85%
    23:00 +8°C° 0 mm 1 mps 750 mmHg 86%
    Show more